www.pogodaiklimat.ru

Погода и климат >> Архив погоды >> Россия >> Калмыкия >> Комсомольский


ПОГОДА в Комсомольском

  • Прогноз погоды в Комсомольском
  • Монитор погоды в Комсомольском
  • Климат города

АРХИВ ПОГОДЫ в Комсомольском

Время (UTC), дата Ветер
(напр.,м/с)
 
Видим.   Явления Облачность Т
(С)
Тd
(С)
f
(%)
Тe
(С)
Тes
(С)
Комфортность P
(гПа)
Po
(гПа)
Тmin
(С)
Tmax
(С)
R
(мм)
R24
(мм)
S
(см)
18 18.05 ЮВ 2 20 км в посл. час ливневой дождь 10/10 360 м
[Cb cap]
+17.1 +11.3 69 +17 +17 1016.2 1016.6
21 18.05 В 2 20 км 10/10 360 м
[Cb cap]
+16.4 +12.0 75 +17 +17 1014.1 1014.5
00 19.05 С 2 н/о н/о +15.1 +13.6 91 +15 +15 1012.8 1013.2
03 19.05 В 3 4000 м дымка 10/10 360 м
[Cb cap]
+15.4 +13.5 88 +15 +15 1011.6 1012.0 +14.7 1
06 19.05 СВ 2 4000 м слабый ливневой дождь 10/10 360 м
[Cb cap]
+15.5 +14.1 91 +15 +15 1011.0 1011.4
09 19.05 СЗ 2 20 км {ливн. осадки} 10/10 480 м
[Cb cap]
+18.3 +13.9 76 +19 +19 1010.7 1011.1
12 19.05 СЗ 2 20 км 10/10 540 м
[Cb cap]
+18.8 +14.0 74 +20 +20 1011.1 1011.5
15 19.05 С 2 20 км 8/8 600 м
[Sc Ac und]
+19.0 +13.3 70 +21 +21 комфорт 1010.9 1011.3 +19.2
18 19.05 штиль 0 20 км 3/0
[Ac und]
+15.3 +13.4 88 +15 +15 1011.6 1012.0
21 19.05 С 1 4000 м дымка 10/10 600 м
[Sc]
+14.1 +13.0 93 +14 +14 1010.1 1010.5
00 20.05 С 2 4000 м дымка 10/10 600 м
[Sc]
+13.9 +13.0 94 +13 +13 1008.6 1009.0
03 20.05 С 3 4000 м дымка 10/10 570 м
[Sc]
+13.7 +13.1 96 +12 +12 1007.6 1008.0 +13.5
06 20.05 С 2 20 км 10/10 600 м
[Sc]
+16.5 +14.0 85 +17 +17 1007.2 1007.6
09 20.05 С 3 20 км в посл. час ливневой дождь 10/10 400 м
[Cb cap]
+17.8 +15.6 87 +18 +18 1004.2 1004.6
12 20.05 СЗ 3 20 км {ливн. осадки} 10/10 450 м
[Cb cap]
+19.7 +15.2 75 +22 +22 комфорт 1005.2 1005.6
15 20.05 СЗ 3 20 км 9/9 300 м
[Cb cap Ac trans]
+19.1 +14.2 73 +21 +21 комфорт 1005.1 1005.4 +20.6
18 20.05 СЗ 2 20 км 10/10 600 м
[Sc]
+17.3 +14.0 81 +18 +18 1006.5 1006.9
21 20.05 СЗ 1 20 км 10/10 600 м
[Sc]
+15.6 +13.3 86 +16 +16 1007.2 1007.6
00 21.05 СЗ 2 4000 м дымка ясно +12.8 +11.7 93 +12 +12 1006.3 1006.7
03 21.05 СЗ 3 20 км 3/0
[Ac trans]
+12.6 +10.5 87 +11 +12 1006.9 1007.3 +11.5
06 21.05 З 3 20 км 8/8 600 м
[Sc Ac trans]
+17.2 +9.7 61 +17 +19 1007.0 1007.4
09 21.05 З 4 20 км 6/4 600 м
[Cu hum Ci fib]
+21.2 +7.6 41 +22 +29 комфорт 1006.3 1006.7
12 21.05 СЗ 4 20 км 6/4 600 м
[Sc Ac trans Ci fib]
+22.6 +6.8 36 +23 +27 комфорт 1005.6 1006.0
15 21.05 З 4
{11}
20 км 8/6 600 м
[Sc Ac trans Ci fib]
+20.3 +9.9 51 +22 +22 комфорт 1006.2 1006.6 +23.2
18 21.05 З 4
{10}
20 км 10/10 600 м
[Sc]
+17.2 +11.1 67 +17 +17 1007.9 1008.2
21 21.05 З 3
{10}
20 км 10/10 570 м
[Sc]
+15.7 +10.4 71 +15 +15 1007.3 1007.6
00 22.05 З 3 20 км 10/10 570 м
[Sc]
+15.8 +9.3 65 +15 +15 1007.4 1007.8
03 22.05 З 3 20 км ясно +15.0 +10.2 73 +14 +16 1007.8 1008.2 +13.8
06 22.05 З 4 20 км ясно +20.5 +8.5 46 +22 +30 комфорт 1007.7 1008.1
09 22.05 З 5-11
{11}
20 км 3/3 1000 м
[Cu hum Ci fib]
+23.5 +6.1 33 +24 +30 комфорт 1007.3 1007.7
12 22.05 З 4
{11}
20 км 4/0
[Ac trans Ci fib]
+24.7 +5.7 29 +24 +31 комфорт 1006.8 1007.1
15 22.05 СЗ 3 20 км 8/8 600 м
[Sc Ac trans]
+22.4 +7.6 39 +23 +24 комфорт 1007.6 1008.0 +24.9
18 22.05 20 км н/о +18.2 +9.7 58 +20 +20 1009.5 1009.9
21 22.05 З 1 20 км 9/9 600 м
[Sc]
+15.8 +10.9 73 +17 +17 1009.0 1009.4
00 23.05 С 1 20 км 10/10 540 м
[Sc]
+14.2 +11.0 81 +15 +15 1008.8 1009.2
03 23.05 С 2 10 км слабый ливневой дождь 10/10 330 м
[Cb cap]
+14.1 +12.5 90 +14 +14 1010.5 1010.9 +14.1 0.3
06 23.05 С 2 20 км {ливн. осадки} 10/10 360 м
[Cb cap]
+15.7 +12.5 81 +16 +16 1012.6 1012.9 +14.0
09 23.05 С 3 20 км в посл. час ливневой дождь 10/10 400 м
[Cb cap]
+15.1 +11.4 79 +14 +14 1013.8 1014.2
12 23.05 СВ 3 20 км {ливн. осадки} 10/10 540 м
[Sc]
+14.8 +8.7 67 +14 +14 1014.4 1014.8
15 23.05 СВ 1 20 км 10/10 570 м
[Sc]
+15.6 +9.7 68 +16 +16 1014.4 1014.7 +16.2 0.0
18 23.05 штиль 0 20 км 9/9 600 м
[Sc Ac und]
+13.6 +10.6 82 +13 +13 1015.7 1016.1
21 23.05 С 1 20 км 10/10 600 м
[Sc]
+13.2 +10.4 83 +13 +13 1016.0 1016.4
00 24.05 СВ 2 20 км 10/10 570 м
[Sc]
+12.9 +9.7 81 +12 +12 1016.0 1016.4
03 24.05 СВ 2 20 км 10/10 540 м
[Sc]
+12.7 +7.0 68 +12 +12 1016.7 1017.1 +12.3
06 24.05 В 3 20 км 10/10 600 м
[Sc Ac trans]
+17.5 +6.4 48 +18 +18 1016.7 1017.1
09 24.05 В 4 20 км 10/10 480 м
[Cb cap]
+20.0 +6.0 40 +21 +21 комфорт 1016.1 1016.5
12 24.05 ЮВ 2 20 км 10/10 600 м
[Sc]
+19.6 +7.0 44 +21 +21 комфорт 1015.8 1016.1
15 24.05 ЮЗ 1 10 км слабый ливневой дождь 10/10 420 м
[Cb cap]
+16.5 +11.4 72 +17 +17 1017.1 1017.5 +20.6
18 24.05 З 2 10 км слабый ливневой дождь 10/10 360 м
[Cb cap]
+13.1 +12.4 96 +12 +12 1018.7 1019.1
21 24.05 СЗ 2 4000 м дымка {ливн. осадки} 10/10 540 м
[Sc]
+12.6 +10.9 89 +12 +12 1018.2 1018.6
00 25.05 С 2 20 км {ливн. осадки} 10/10 540 м
[Sc]
+12.5 +9.4 81 +12 +12 1017.3 1017.7
03 25.05 С 2 20 км 8/8 300 м
[Sc Ac trans]
+13.2 +8.3 72 +13 +13 1017.7 1018.0 +12.3
06 25.05 СВ 2 20 км 6/6 600 м
[Sc Ac trans]
+19.6 +5.8 40 +21 +26 комфорт 1017.5 1017.9
09 25.05 20 км н/о +23.1 +5.3 32 +23 +34 комфорт 1016.7 1017.1
12 25.05 В 1 20 км 8/8 600 м
[Sc Ac trans]
+21.8 +6.9 38 +23 +25 комфорт 1016.3 1016.6
15 25.05 штиль 0 20 км 10/10 480 м
[Cb cap]
+20.7 +9.9 50 +22 +22 комфорт 1016.3 1016.7 +23.6

 

Местоположение метеостанции Комсомольский (Калмыкия, Россия): широта 45.35 долгота 46.03 высота над уровнем моря -2 м.

В архиве по умолчанию представлена погода в Комсомольском за последнюю неделю. Архивные данные за месяц целиком и за предыдущие месяцы, начиная с января 2011 года, Вы можете получить, выбрав интересующий диапазон дат из раскрывающегося списка и нажав кнопку "Ввод!".

Внимание! Время в таблицах - всемирное. Для получения местного времени необходимо прибавить поправку, которая в Комсомольском равна 3 ч.

Смотрите также архив погоды в соседних городах и на ближайших метеорологических станциях:

Погода в Артезиане (Калмыкия, Россия) (70 км)
Погода в Южно-Сухокумске (Дагестан, Россия) (83 км)
Погода в Лагани (Калмыкия, Россия) (103 км)
Погода в Лимане (Астраханская область, Россия) (105 км)
Погода в Яшкуле (Калмыкия, Россия) (106 км)
Погода в Кочубее (Дагестан, Россия) (113 км)
Погода в Утте (Калмыкия, Россия) (113 км)
Погода в Ики-Буруле (Калмыкия, Россия) (120 км)
Погода в Терекли-Мектебе (Дагестан, Россия) (136 км)
Погода в Арзгире (Ставропольский край, Россия) (143 км)

Пояснения к столбцам:

Ветер - указаны скорость ветра в м/с - средняя за 10 мин, порывы в срок и между сроками (в фигурных скобках) и направление, откуда дует ветер: С - северный, СВ - северо-восточный, В - восточный, ЮВ - юго-восточный, Ю - южный, ЮЗ - юго-западный, З - западный, СЗ - северо-западный.
Видимость - горизонтальная дальность видимости в метрах или километрах. При видимости от 1 до 10 км при отсутствии осадков обычно наблюдается дымка, при ухудшении видимости до 1 км и менее - туман. В сухую погоду видимость может ухудшаться дымом, пылью или мглою.
Явления - указаны атмосферные явления, наблюдавшиеся в срок или в последний час перед сроком; фигурными скобками обозначены явления, наблюдавшиеся между сроками (за 1-3 часа до срока); квадратными скобками обозначены град или гололедные отложения с указанием их диаметра в мм.
Облачность - указаны через наклонную черту общая и нижняя облачность в баллах и высота нижней границы облаков в метрах; квадратными скобками обозначены формы облаков: Ci - перистые, Cs - перисто-слоистые, Cc - перисто-кучевые, Ac - высококучевые, As - высокослоистые, Sc - слоисто-кучевые, Ns - слоисто-дождевые, Cu - кучевые, Cb - кучево-дождевые. Подробнее классификацию облаков см. в Атласе облаков (PDF).
T - Температура воздуха - температура, измеренная на высоте 2 м над землей.
Td - Температура точки росы - температура, при понижении до которой содержащийся в воздухе водяной пар достигнет насыщения.
f - Относительная влажность воздуха - влажноcть воздуха, измеренная на высоте 2 м над землей.
Te - Эффективная температура - температура, которую ощущает одетый по сезону человек в тени. Характеристика душности погоды. При расчете учитывается влияние влажности воздуха и скорости ветра на теплоощущения человека.
Tes - Эффективная температура на солнце - температура, которую ощущает человек, с поправкой на солнечный нагрев. Характеристика знойности погоды. Зависит от высоты солнца над горизонтом, облачности и скорости ветра. Ночью, в пасмурную погоду, а также при ветре 12 м/с и более поправка равна нулю.
P - Атмосферное давление - приведенное к уровню моря атмосферное давление.
Po - Атмосферное давление - измеренное на уровне метеостанции атмосферное давление.
Tmin - Минимальная температура - минимум температуры воздуха на высоте 2 м над землей.
Tmax - Максимальная температура - максимум температуры воздуха на высоте 2 м над землей.
R - Количество осадков - Количество выпавших осадков за период времени, мм. При наведении курсора мыши на число - период времени, за который выпало указанное количество осадков.
R24 - Количество осадков - Количество выпавших осадков за 24 часа, мм.
S - Снежный покров - Высота снежного покрова, см. При наведении курсора мыши на число - состояние снежного покрова и степень покрытия местности в баллах.